Location: Alafon
(8.4500°N, 4.2333°E)
Time: 02:56:09
(UTC+00:00)

Vanguard 2 - Pass Details

Date: 05 August 2021
Orbit: 553 x 2937 km, 32.9° (Epoch: 27 September)

Event Time Altitude Azimuth Distance (km) Brightness Sun altitude
Rises 23:11:14 0° 234° (SW) 5,036 - -63.2°
Reaches altitude 10° 23:15:13 10° 233° (SW) 3,644 - -63.5°
Maximum altitude 23:23:51 81° 147° (SSE) 1,002 - -64.1°
Drops below altitude 10° 23:29:04 10° 59° (ENE) 2,258 - -64.4°
Sets 23:31:02 0° 58° (ENE) 3,021 - -64.5°
